This demonstration page uses our WeatherBlox Daily Observations layout. Learn more.

Left ArrowRight Arrow

Hourly Observations for May 16, 2020

Temp ( °F °C ) Dew Point ( °F °C ) Humidity (%) Winds ( mph kmh ) Pressure ( in mb ) Visibility ( mi km ) Precip ( " mm )
12:15 am 00:15 Partly Cloudy 58 14.2 48 9 71 71 ESE 10 17 29.9 1012 10 16.0934 0 0
12:35 am 00:35 Partly Cloudy 57 13.8 49 9.2 74 74 ESE 8 13 29.89 1012 10 16.0934 0 0
12:55 am 00:55 Mostly Cloudy 57 14.1 49 9.5 74 74 ESE 9 15 29.9 1012 10 16.0934 0 0
1:15 am 01:15 Cloudy 57 14.1 50 9.8 76 76 ESE 10 17 29.91 1013 10 16.0934 0 0
1:35 am 01:35 Partly Cloudy 57 14 50 10 77 77 SE 9 15 29.9 1012 10 16.0934 0 0
1:55 am 01:55 Clear 57 13.7 51 10.4 81 81 ESE 9 15 29.9 1013 10 16.0934 0 0
2:15 am 02:15 Partly Cloudy 57 13.7 51 10.6 82 82 SE 8 13 29.9 1013 10 16.0934 0 0
2:35 am 02:35 Partly Cloudy 57 14 52 11 82 82 SE 8 13 29.9 1012 10 16.0934 0 0
2:55 am 02:55 Mostly Cloudy with Nearby Thunderstorms 57 14.1 52 11.2 83 83 SE 8 13 29.89 1012 10 16.0934 0 0
3:15 am 03:15 Cloudy 58 14.4 53 11.6 83 83 SE 10 17 29.88 1012 10 16.0934 0 0
3:35 am 03:35 Cloudy 58 14.6 53 11.7 83 83 SE 10 17 29.88 1012 10 16.0934 0 0
3:55 am 03:55 Mostly Cloudy 58 14.2 53 11.8 86 86 SE 9 15 29.88 1012 10 16.0934 0 0
4:15 am 04:15 Partly Cloudy 57 13.7 53 11.9 89 89 ESE 10 17 29.86 1011 10 16.0934 0 0
4:35 am 04:35 Partly Cloudy 56 13.3 53 11.6 90 90 ESE 5 7 29.89 1012 10 16.0934 0 0
4:55 am 04:55 Cloudy 56 13.5 53 11.8 90 90 Calm 29.9 1013 10 16.0934 0 0
5:15 am 05:15 Cloudy 56 13.5 53 11.8 90 90 Calm 29.9 1013 10 16.0934 0 0
5:35 am 05:35 Cloudy 56 13.6 54 12 90 90 N 8 13 29.9 1013 10 16.0934 0 0
5:55 am 05:55 Cloudy 57 14 54 12.1 88 88 N 5 7 29.91 1013 10 16.0934 0 0
6:15 am 06:15 Cloudy with Light Rain 57 13.9 54 12 88 88 NNE 7 11 29.9 1012 10 16.0934 0 0
6:35 am 06:35 Cloudy with Rain 57 13.9 55 12.5 91 91 NNE 3 6 29.91 1013 7 11.26538 0 0
6:55 am 06:55 Cloudy with Rain 54 12.2 52 11 92 92 NNW 9 15 29.92 1013 5 8.0467 0.03 0.762
7:15 am 07:15 Cloudy with Light Rain 53 11.8 52 11 95 95 NNW 9 15 29.94 1014 3 4.82802 0.02 0.508
7:35 am 07:35 Cloudy with Heavy Rain 54 12.1 53 11.5 96 96 N 7 11 29.93 1014 2.5 4.02335 0.13 3.302
7:55 am 07:55 Cloudy with Heavy Rain 54 12 53 11.5 97 97 N 8 13 29.94 1014 2 3.21868 0.33 8.382
8:15 am 08:15 Cloudy with Heavy Rain 54 12 53 11.5 97 97 NNE 8 13 29.93 1013 3 4.82802 0.06 1.524
8:35 am 08:35 Cloudy with Rain 54 12.1 53 11.6 97 97 NE 8 13 29.91 1013 2.5 4.02335 0.12 3.048
8:55 am 08:55 Cloudy with Rain 55 12.5 54 12 97 97 ENE 7 11 29.92 1013 2.5 4.02335 0.15 3.81
9:15 am 09:15 Cloudy with Light Rain 55 12.7 54 12.2 97 97 ENE 10 17 29.91 1013 4 6.43736 0.01 0.254
9:35 am 09:35 Cloudy with Drizzle 55 13 55 12.5 97 97 ENE 13 20 29.9 1012 5 8.0467 0.01 0.254
9:55 am 09:55 Cloudy 56 13.6 56 13.1 97 97 NE 7 11 29.9 1013 7 11.26538 0.01 0.254
10:15 am 10:15 Cloudy 57 14 56 13.4 96 96 NE 5 7 29.9 1012 7 11.26538 0 0
10:35 am 10:35 Cloudy 58 14.2 56 13.3 94 94 NNW 3 6 29.91 1013 7 11.26538 0 0
10:55 am 10:55 Cloudy 58 14.6 56 13.4 93 93 NNW 5 7 29.9 1013 10 16.0934 0 0
11:15 am 11:15 Cloudy 59 15 56 13.5 91 91 N 3 6 29.91 1013 10 16.0934 0 0
11:35 am 11:35 Cloudy 59 15.2 56 13.5 90 90 NNW 3 6 29.92 1013 10 16.0934 0 0
11:55 am 11:55 Cloudy 60 15.6 57 13.8 89 89 NNW 3 6 29.91 1013 10 16.0934 0 0
12:15 pm 12:15 Cloudy 61 15.9 57 13.7 87 87 NNW 7 11 29.91 1013 10 16.0934 0 0
12:35 pm 12:35 Cloudy 61 15.9 56 13.6 86 86 NNW 6 9 29.91 1013 10 16.0934 0 0
12:55 pm 12:55 Cloudy 61 16.2 56 13.6 85 85 WNW 5 7 29.91 1013 10 16.0934 0 0
1:15 pm 13:15 Cloudy 63 17.4 57 14.1 81 81 NNW 6 9 29.9 1012 10 16.0934 0 0
1:35 pm 13:35 Cloudy 64 17.9 58 14.5 81 81 N 5 7 29.87 1012 10 16.0934 0 0
1:55 pm 13:55 Mostly Cloudy 65 18.4 58 14.4 78 78 N 7 11 29.87 1012 10 16.0934 0 0
2:15 pm 14:15 Mostly Cloudy 67 19.2 58 14.6 75 75 NNW 6 9 29.85 1011 10 16.0934 0 0
2:35 pm 14:35 Mostly Cloudy 67 19.2 58 14.5 74 74 N 7 11 29.86 1011 10 16.0934 0 0
2:55 pm 14:55 Mostly Cloudy 69 20.4 58 14.5 69 69 NNW 9 15 29.84 1011 10 16.0934 0 0
3:15 pm 15:15 Mostly Cloudy 68 20.1 57 13.7 67 67 NW 12 19 29.86 1011 10 16.0934 0 0
3:35 pm 15:35 Cloudy 68 20.2 57 13.7 66 66 NW 9 15 29.85 1011 10 16.0934 0 0
3:55 pm 15:55 Partly Cloudy 69 20.7 56 13.2 62 62 NW 10 17 29.83 1010 10 16.0934 0 0
4:15 pm 16:15 Sunny 70 21 56 13.4 62 62 NW 10 17 29.83 1010 10 16.0934 0 0
4:35 pm 16:35 Partly Cloudy 69 20.7 57 13.7 64 64 NNW 8 13 29.83 1010 10 16.0934 0 0
4:55 pm 16:55 Mostly Cloudy 71 21.7 56 13.4 59 59 NNW 10 17 29.82 1010 10 16.0934 0 0
5:15 pm 17:15 Mostly Cloudy 70 21 55 12.7 59 59 NW 14 22 29.84 1010 10 16.0934 0 0
5:35 pm 17:35 Cloudy with Light Rain 63 17.1 53 11.8 71 71 NNW 15 24 29.87 1012 10 16.0934 0 0
5:55 pm 17:55 Cloudy 63 17.1 56 13.4 79 79 NNW 9 15 29.87 1012 10 16.0934 0 0
6:15 pm 18:15 Partly Cloudy 65 18.1 55 12.9 72 72 NW 7 11 29.86 1011 10 16.0934 0 0
6:35 pm 18:35 Sunny 65 18.5 56 13.1 71 71 NW 9 15 29.85 1011 10 16.0934 0 0
6:55 pm 18:55 Sunny 67 19.2 56 13.4 69 69 NW 9 15 29.85 1011 10 16.0934 0 0
7:15 pm 19:15 Sunny 66 18.9 57 14 73 73 N 10 17 29.86 1011 10 16.0934 0 0
7:35 pm 19:35 Sunny 65 18.2 56 13.5 74 74 N 9 15 29.86 1011 10 16.0934 0 0
7:55 pm 19:55 Sunny 64 17.8 56 13.6 77 77 N 8 13 29.88 1012 10 16.0934 0 0
8:15 pm 20:15 Partly Cloudy 63 17.4 56 13.3 77 77 N 10 17 29.9 1012 10 16.0934 0 0
8:35 pm 20:35 Mostly Cloudy 62 16.6 57 13.7 83 83 NNE 20 31 29.92 1013 10 16.0934 0 0
8:55 pm 20:55 Partly Cloudy 59 15 54 12.2 83 83 N 10 17 29.93 1014 10 16.0934 0 0
9:15 pm 21:15 Clear 58 14.2 54 12.3 88 88 NNW 5 7 29.94 1014 10 16.0934 0 0
9:35 pm 21:35 Clear 57 14.1 54 12.2 88 88 NW 5 7 29.95 1014 10 16.0934 0 0
9:55 pm 21:55 Clear 56 13.2 53 11.5 90 90 NW 6 9 29.95 1014 10 16.0934 0 0
10:15 pm 22:15 Clear 55 13 52 11.2 89 89 NW 7 11 29.96 1014 10 16.0934 0 0
10:35 pm 22:35 Clear 55 12.5 52 11 91 91 NW 7 11 29.97 1015 10 16.0934 0 0
10:55 pm 22:55 Clear 54 12 51 10.6 91 91 NW 9 15 29.99 1015 10 16.0934 0 0
11:15 pm 23:15 Clear 54 12 50 9.9 87 87 NNW 10 17 29.99 1015 10 16.0934 0 0
11:35 pm 23:35 Clear 53 11.8 49 9.3 85 85 NNW 12 19 29.99 1015 10 16.0934 0 0
11:55 pm 23:55 Clear 52 11.2 49 9.4 89 89 NNW 7 11 30 1016 10 16.0934 0 0

Powered by AerisWeather